2024-125C

Last updated on Sun Aug 04 2024 00:02:04 GMT+0000 (Coordinated Universal Time)

1 60205U 24125C 24216.54276588 .00017092 00000+0 75807-3 0 9995 2 60205 97.3192 68.5847 0023471 145.9089 214.3660 15.21403994 4618

Satellite not in orbit

2024-125C